User: anonymous   Login
Location: Unspecified
(0.0000°N, 0.0000°E)
Time: 16:19:10
(UTC+00:00)
Language:

BREEZE-M R/B - Orbit

View from above orbital plane
View from above orbital plane
View from above satellite
View from above satellite

Ground track
Ground track

The orbit data is extracted from the following two-line orbital elements,

1 39173U 13026B   21101.09477312 -.00000280  00000-0  00000-0 0  9994
2 39173  23.7553 120.7780 7683995 276.6994   9.8539  1.10516622 31322
Epoch (UTC): 11 April 2021 02:16:28
Eccentricity: 0.7683995
inclination: 23.7553°
perigee height: 2774 km
apogee height: 63503 km
right ascension of ascending node: 120.7780°
argument of perigee: 276.6994°
revolutions per day: 1.10516622
mean anomaly at epoch: 9.8539°
orbit number at epoch: 3132

The dashed part of the orbit path shows where the satellite is in the earth's shadow,  

DLR